Location: Sevilla
(37.3933°N, 5.9839°W)
Time: 04:11:09
(UTC+02:00)

Vanguard 3 - Pass Details

Date: 03 July 2024
Orbit: 508 x 3231 km, 33.4° (Epoch: 15 July)

Event Time Altitude Azimuth Distance (km) Brightness Sun altitude
Rises 08:01:44 0° 243° (WSW) 7,183 11.3 8.7°
Reaches altitude 10° 08:06:45 10° 241° (WSW) 6,111 11.0 9.7°
Maximum altitude 08:25:14 65° 165° (SSE) 2,720 10.0 13.1°
Drops below altitude 10° 08:37:02 10° 87° (E) 4,107 12.7 15.3°
Sets 08:39:43 0° 84° (E) 4,796 12.8 15.8°
